Notices

What's New in latest Release from April 7th, 2021:

- Updated Glossary, including Speed of Maximum Gust, and Total Hourly Precipitation

- Updated national and regional climate services offices contacts and prices information

- Addition of station inventory lists for 1981-2010, 1971-2000, and 1961-1990 Normals.

If you haven't already, please take our survey and provide feedback about our website: https://eccc.sondage-survey.ca/f/LanguageSelection.aspx?s=442ca660-fcf1-47c0-95a9-59707d6fd709

Hourly Data Report for December 11, 2020

MUSKOKA
ONTARIO
Current Station Operator: NAVCAN

44°58'29.000" N
79°18'12.000" W
281.90 m
6115529
71532
YQA

Download Data

Hourly Data (December 2020)
Hourly Data Report for December 11, 2020
TIME
LST
Temp Definition
°C
Dew Point Definition
°C
Rel Hum Definition
%
Precip. Amount Definition
mm

Wind Dir Definition
10's deg

Wind Spd Definition
km/h
Visibility Definition
km
Stn Press Definition
kPa
Hmdx Definition


Wind Chill Definition


Weather Definition


00:00 0.8 -0.4 92 LegendMM 16 13 9.7 98.18     Fog
01:00 0.6 -0.3 94 LegendMM 14 15 6.4 98.10     Fog
02:00 0.1 -0.5 96 LegendMM 14 11 4.8 98.08     Fog
03:00 -0.3 -0.9 96 LegendMM 15 13 3.6 98.06   -4 Fog
04:00 0.1 -0.3 97 LegendMM 15 15 3.6 97.98     Fog
05:00 0.3 -0.1 97 LegendMM 15 13 4.0 97.96     Fog
06:00 0.3 -0.1 97 LegendMM 14 8 4.0 97.99     Fog
07:00 -0.6 -1.0 97 LegendMM 13 5 2.8 97.98   -2 Fog
08:00 -1.6 -1.9 98 LegendMM 13 4 0.4 98.02   -3 Freezing Fog
09:00 0.3 0.2 99 LegendMM 14 4 3.2 98.02     Fog
10:00 1.2 0.8 97 LegendMM 14 8 4.8 98.02     Fog
11:00 2.2 1.2 93 LegendMM   0 4.8 98.06     Fog
12:00 2.3 1.1 92 LegendMM 34 5 6.4 98.12     Fog
13:00 3.0 1.2 88 LegendMM 33 5 8.1 98.07     Fog
14:00 3.3 1.7 89 LegendMM 34 8 8.1 98.09     Fog
15:00 3.9 1.7 85 LegendMM LegendMM 4 8.1 98.13     Fog
16:00 2.8 1.2 89 LegendMM 34 13 6.4 98.24     Fog
17:00 2.7 1.1 89 LegendMM 36 5 8.1 98.32     Fog
18:00 2.7 1.4 91 LegendMM 2 5 8.1 98.38     Fog
19:00 2.5 1.3 92 LegendMM 2 5 8.1 98.41     Fog
20:00 2.4 1.2 92 LegendMM 3 8 11.3 98.44     LegendNANA
21:00 2.2 0.9 91 LegendMM 2 5 16.1 98.54     LegendNANA
22:00 2.0 0.5 90 LegendMM 5 11 16.1 98.52     LegendNANA
23:00 1.8 0.3 90 LegendMM 8 5 16.1 98.53     LegendNANA

Notes on Data Quality.

Legend

  • E = Estimated
  • M = Missing
  • NA = Not Available*
  • [empty] = Indicates an unobserved value
Date modified: